STARLINK-38071, 69992

Orbit data source: Space-Track

STARLINK-38071, 69992 is a payload satellite owned by SpaceX/Seattle (US) in SSO that was launched on Sat, 11 Jul 2026 UTC via an FALCON 9 launch vehicle from the Air Force Western Test Range (AFWTR). Payload-class satellites include a variety of spacecraft equipped with specific instruments for various scientific and technological missions. These include communications satellites like Starlink; space stations such as the ISS; scientific satellites like the Hubble; Earth observation satellites from companies like Planet Labs, Umbra, and HawkEye 360; GPS; miniature CubeSats for education and research; and military/defense satellites.

Loading next visibility...
Identifier
69992, 2026-159T
Orbit
SSO
Country
Flag of USUS
Related business
Manufacturer
SpaceX/Seattle
Mission
Operational spacecraft
Bus & Motor
STARLINK V2MO, Unknown motor
Mass
575 kg wet, ~530 kg dry
Launch date (UTC)
2026-07-11 (2 months ago)
Launch vehicle
FALCON 9
Launch site
Air Force Western Test Range (AFWTR)
Object type
Payload
Rocket body
Debris
Shape & HBR
BOX + PAN, 17.7 m
Radar Cross Section
Large (>1 m²)

Expand to show TLE details & history
Last TLE update: 17 hours ago

TLE from 17 hours ago
0 STARLINK-38071
1 69992U 26159T   26264.30632385  .00031033  00000-0  56951-3 0  9997
2 69992  97.2869 106.1570 0001240  88.6822 271.4571 15.49214838 12576
Epoch: 2026-09-21T07:21Z
TLE epoch observation values (Epoch: 2026-09-21T07:21:06.380Z)
Latitude
-0.00006°
Longitude
-4.30762°
Altitude
422.134 km
Speed
7.658 km/s
True Right ascension
07h 04m 37s
True Declination
0° 00' 00"
Sunlit
Object was in daylight at epoch
Visualization orbit readout
Latitude
Unknown
Longitude
Unknown
Altitude
Unknown
Speed
Unknown
Apparent Right ascension
Unknown
Apparent Declination
Unknown
Sunlit
N/A
Visualization observer readout
Local Sidereal Time
17:24:24
Azimuth
Unknown
Elevation
Unknown
Doppler factor
Unknown
Orbital elements
Apogee altitude
416.786 km
Perigee altitude
415.101 km
Semi-major axis
6,794.081 km
Eccentricity
0.00012
Inclination
97.2869°
RAAN
106.157°
Arg. of periapsis
88.6822°
True anomaly
271.4429°
Mean anomaly
271.4571°
Eccentric anomaly
271.45°
Mean motion
3.87567 °/min
Orbital period
92.89 mins
BSTAR
0.00056951
Loading maneuver chart data...
Computing Atmospheric mass density...
Loading historical data...
Loading historical data...
Loading historical data...
Loading historical data...
Loading historical data...
Loading historical data...
Loading historical data...

Documentation

Showing up to 5 results
|